This is the latest recevied weather packets stored in our database for station/object IA5ITY-13. If no packets are shown the sender has not sent any weather packets the latest 10 day(s).
| Time | Temp. | Humidity | Pressure | Rain* | Wind** | Luminosity | Snow |
|---|---|---|---|---|---|---|---|
| 1777717212 | 21.11° C | 32% | 1024 hPa | 0 mm | - | - | - |
| 1777716911 | 22.22° C | 32% | 1024 hPa | 0 mm | - | - | - |
| 1777716613 | 21.11° C | 32% | 1024.1 hPa | 0 mm | - | - | - |
| 1777716309 | 21.11° C | 32% | 1024.1 hPa | 0 mm | - | - | - |
| 1777716031 | 22.22° C | 33% | 1024.1 hPa | 0 mm | - | - | - |
| 1777715709 | 22.22° C | 31% | 1024.1 hPa | 0 mm | - | - | - |
| 1777715412 | 21.11° C | 32% | 1024.2 hPa | 0 mm | - | - | - |
| 1777714812 | 20° C | 34% | 1024.1 hPa | 0 mm | - | - | - |
| 1777714509 | 21.11° C | 33% | 1024.2 hPa | 0 mm | - | - | - |
| 1777714222 | 21.11° C | 35% | 1024.2 hPa | 0 mm | - | - | - |
| 1777713909 | 21.11° C | 27% | 1024.2 hPa | 0 mm | - | - | - |
| 1777713612 | 21.11° C | 34% | 1024.1 hPa | 0 mm | - | - | - |
| 1777713312 | 21.11° C | 26% | 1024.1 hPa | 0 mm | - | - | - |
| 1777713012 | 21.11° C | 26% | 1024 hPa | 0 mm | - | - | - |
| 1777712709 | 22.22° C | 25% | 1023.9 hPa | 0 mm | - | - | - |
| 1777712431 | 21.11° C | 27% | 1023.8 hPa | 0 mm | - | - | - |
| 1777712109 | 22.22° C | 24% | 1023.9 hPa | 0 mm | - | - | - |
| 1777711811 | 22.22° C | 23% | 1023.9 hPa | 0 mm | - | - | - |
| 1777711512 | 22.22° C | 22% | 1023.9 hPa | 0 mm | - | - | - |
| 1777711212 | 22.78° C | 21% | 1023.9 hPa | 0 mm | - | - | - |
| 1777710908 | 22.22° C | 21% | 1024 hPa | 0 mm | - | - | - |
| 1777710621 | 22.22° C | 20% | 1023.9 hPa | 0 mm | - | - | - |
| 1777710309 | 22.22° C | 20% | 1023.9 hPa | 0 mm | - | - | - |
| 1777710013 | 22.22° C | 21% | 1023.9 hPa | 0 mm | - | - | - |
| 1777709713 | 22.78° C | 21% | 1024 hPa | 0 mm | - | - | - |
* Rain latest hour (hover to see other rain measurements)
** Current wind speed in m/s (hover to see current wind gust speed)